Time,TemperatureF,DewpointF,PressureIn,WindDirection,WindDirectionDegrees,WindSpeedMPH,WindSpeedGustMPH,Humidity,HourlyPrecipIn,Conditions,Clouds,dailyrainin,SoftwareType,DateUTC
2013-06-02 00:01:00,68.1,66.9,30.26,West,260,0.0,0.0,96,0.00,RA,,0.00,WeatherDisplay:10.37,2013-06-02 04:01:00,
2013-06-02 00:06:00,68.1,67.2,30.25,West,260,0.0,0.0,97,0.00,-RA,,0.00,WeatherDisplay:10.37,2013-06-02 04:06:00,
2013-06-02 00:11:00,68.1,67.2,30.25,West,260,0.0,0.0,97,0.00,-RA,,0.00,WeatherDisplay:10.37,2013-06-02 04:11:00,
2013-06-02 00:16:00,68.1,67.2,30.25,West,260,0.0,0.0,97,0.00,-RA,,0.00,WeatherDisplay:10.37,2013-06-02 04:16:00,
2013-06-02 00:22:00,68.2,67.3,30.25,West,260,1.2,0.0,97,0.00,-RA,,0.00,WeatherDisplay:10.37,2013-06-02 04:22:00,
2013-06-02 00:27:00,68.2,67.3,30.25,West,260,0.0,0.0,97,0.00,-RA,,0.00,WeatherDisplay:10.37,2013-06-02 04:27:00,
2013-06-02 00:32:00,68.3,67.4,30.24,West,260,0.0,0.0,97,0.00,-RA,,0.00,WeatherDisplay:10.37,2013-06-02 04:32:00,
2013-06-02 00:37:00,68.2,67.3,30.24,West,260,0.0,0.0,97,0.00,-RA,,0.00,WeatherDisplay:10.37,2013-06-02 04:37:00,
2013-06-02 00:42:00,68.2,67.3,30.24,West,260,0.0,0.0,97,0.00,-RA,,0.00,WeatherDisplay:10.37,2013-06-02 04:42:00,
2013-06-02 00:47:00,68.3,67.4,30.24,West,260,0.0,0.0,97,0.00,-RA,,0.00,WeatherDisplay:10.37,2013-06-02 04:47:00,
2013-06-02 00:52:00,68.3,67.4,30.24,West,260,0.0,0.0,97,0.00,-RA,,0.00,WeatherDisplay:10.37,2013-06-02 04:52:00,
2013-06-02 00:57:00,68.3,67.4,30.24,West,260,0.0,0.0,97,0.00,-RA,,0.00,WeatherDisplay:10.37,2013-06-02 04:57:00,
2013-06-02 01:02:00,68.3,67.1,30.23,West,260,1.2,0.0,96,0.00,BKN,,0.00,WeatherDisplay:10.37,2013-06-02 05:02:00,
2013-06-02 01:07:00,68.3,67.1,30.23,West,260,1.2,1.2,96,0.00,BKN,,0.00,WeatherDisplay:10.37,2013-06-02 05:07:00,
2013-06-02 01:12:00,68.3,67.1,30.23,West,260,0.0,0.0,96,0.01,RA,,0.01,WeatherDisplay:10.37,2013-06-02 05:12:00,
2013-06-02 01:17:00,68.2,67.0,30.22,SE,146,1.2,1.2,96,0.01,RA,,0.01,WeatherDisplay:10.37,2013-06-02 05:17:00,
2013-06-02 01:22:00,68.1,66.9,30.22,SSE,147,0.0,0.0,96,0.01,BKN,,0.01,WeatherDisplay:10.37,2013-06-02 05:22:00,
2013-06-02 01:27:00,68.1,66.9,30.22,SE,146,0.0,0.0,96,0.01,BKN,,0.01,WeatherDisplay:10.37,2013-06-02 05:27:00,
2013-06-02 01:32:00,68.0,66.8,30.22,SSE,147,0.0,0.0,96,0.01,BKN,,0.01,WeatherDisplay:10.37,2013-06-02 05:32:00,
2013-06-02 01:37:00,67.9,66.7,30.22,SSE,147,0.0,0.0,96,0.01,BKN,,0.01,WeatherDisplay:10.37,2013-06-02 05:37:00,
2013-06-02 01:42:00,67.9,66.7,30.22,SE,146,1.2,0.0,96,0.01,BKN,,0.01,WeatherDisplay:10.37,2013-06-02 05:42:00,
2013-06-02 01:47:00,67.9,66.7,30.21,SE,146,1.2,1.2,96,0.01,BKN,,0.01,WeatherDisplay:10.37,2013-06-02 05:47:00,
2013-06-02 01:52:00,67.9,66.7,30.21,NNE,14,1.2,1.2,96,0.01,BKN,,0.01,WeatherDisplay:10.37,2013-06-02 05:52:00,
2013-06-02 01:57:00,67.9,66.7,30.20,NNE,15,0.0,0.0,96,0.01,BKN,,0.01,WeatherDisplay:10.37,2013-06-02 05:57:00,
2013-06-02 02:02:00,67.9,67.0,30.25,NNW,331,13.8,13.8,97,0.01,OVC,,0.01,WeatherDisplay:10.37,2013-06-02 06:02:00,
2013-06-02 02:07:00,68.1,67.2,30.24,WNW,294,4.0,4.0,97,0.08,RA,,0.08,WeatherDisplay:10.37,2013-06-02 06:07:00,
2013-06-02 02:12:00,68.1,66.9,30.23,NW,319,2.3,2.3,96,0.07,RA,,0.08,WeatherDisplay:10.37,2013-06-02 06:12:00,
2013-06-02 02:17:00,68.1,66.9,30.22,NW,319,0.0,0.0,96,0.07,OVC,,0.08,WeatherDisplay:10.37,2013-06-02 06:17:00,
2013-06-02 02:22:00,67.9,66.7,30.22,North,3,1.2,1.2,96,0.07,OVC,,0.08,WeatherDisplay:10.37,2013-06-02 06:22:00,
2013-06-02 02:27:00,67.9,66.7,30.21,SSE,158,1.2,1.2,96,0.07,OVC,,0.08,WeatherDisplay:10.37,2013-06-02 06:27:00,
2013-06-02 02:32:00,67.8,66.9,30.20,ESE,120,2.3,2.3,97,0.07,OVC,,0.08,WeatherDisplay:10.37,2013-06-02 06:32:00,
2013-06-02 02:37:00,67.7,66.8,30.20,SSE,167,1.2,0.0,97,0.07,OVC,,0.08,WeatherDisplay:10.37,2013-06-02 06:37:00,
2013-06-02 02:42:00,67.7,66.8,30.19,SE,143,2.3,2.3,97,0.07,OVC,,0.08,WeatherDisplay:10.37,2013-06-02 06:42:00,
2013-06-02 02:47:00,67.6,66.7,30.19,SSE,159,0.0,0.0,97,0.07,OVC,,0.08,WeatherDisplay:10.37,2013-06-02 06:47:00,
2013-06-02 02:52:00,67.5,66.6,30.19,ESE,121,2.3,2.3,97,0.07,OVC,,0.08,WeatherDisplay:10.37,2013-06-02 06:52:00,
2013-06-02 02:57:00,67.5,66.6,30.18,ESE,120,1.2,1.2,97,0.07,OVC,,0.08,WeatherDisplay:10.37,2013-06-02 06:57:00,
2013-06-02 03:02:00,67.6,66.7,30.18,ESE,121,2.3,2.3,97,0.07,OVC,,0.08,WeatherDisplay:10.37,2013-06-02 07:02:00,
2013-06-02 03:07:00,67.6,66.7,30.18,SSE,156,0.0,0.0,97,0.00,OVC,,0.08,WeatherDisplay:10.37,2013-06-02 07:07:00,
2013-06-02 03:12:00,67.7,66.8,30.19,WNW,302,3.5,3.5,97,0.00,OVC,,0.08,WeatherDisplay:10.37,2013-06-02 07:12:00,
2013-06-02 03:17:00,67.7,66.8,30.19,WNW,302,0.0,0.0,97,0.00,OVC,,0.08,WeatherDisplay:10.37,2013-06-02 07:17:00,
2013-06-02 03:22:00,67.7,66.8,30.19,WNW,302,0.0,0.0,97,0.00,OVC,,0.08,WeatherDisplay:10.37,2013-06-02 07:22:00,
2013-06-02 03:27:00,67.6,66.7,30.19,WNW,302,0.0,0.0,97,0.00,OVC,,0.08,WeatherDisplay:10.37,2013-06-02 07:27:00,
2013-06-02 03:33:00,67.6,66.7,30.18,South,177,2.3,2.3,97,0.00,OVC,,0.08,WeatherDisplay:10.37,2013-06-02 07:33:00,
2013-06-02 03:38:00,67.6,66.7,30.17,East,84,1.2,1.2,97,0.00,OVC,,0.08,WeatherDisplay:10.37,2013-06-02 07:38:00,
2013-06-02 03:43:00,67.6,66.7,30.17,SSE,159,2.0,2.0,97,0.00,OVC,,0.08,WeatherDisplay:10.37,2013-06-02 07:43:00,
2013-06-02 03:48:00,67.6,66.7,30.17,ESE,106,3.5,3.5,97,0.00,OVC,,0.08,WeatherDisplay:10.37,2013-06-02 07:48:00,
2013-06-02 03:53:00,67.5,66.6,30.16,SSE,168,2.3,2.3,97,0.00,OVC,,0.08,WeatherDisplay:10.37,2013-06-02 07:53:00,
2013-06-02 03:58:00,67.5,66.6,30.16,East,99,2.3,2.3,97,0.00,OVC,,0.08,WeatherDisplay:10.37,2013-06-02 07:58:00,
2013-06-02 04:03:00,67.5,66.6,30.15,East,99,1.0,1.0,97,0.00,OVC,,0.08,WeatherDisplay:10.37,2013-06-02 08:03:00,
2013-06-02 04:08:00,67.4,66.5,30.15,SE,146,2.3,2.3,97,0.00,OVC,,0.08,WeatherDisplay:10.37,2013-06-02 08:08:00,
2013-06-02 04:13:00,67.5,66.6,30.15,ESE,122,1.2,0.0,97,0.00,OVC,,0.08,WeatherDisplay:10.37,2013-06-02 08:13:00,
2013-06-02 04:18:00,67.4,66.5,30.16,WSW,253,2.3,0.0,97,0.01,RA,,0.10,WeatherDisplay:10.37,2013-06-02 08:18:00,
2013-06-02 04:23:00,67.5,66.6,30.18,WNW,298,11.5,11.5,97,0.02,RA,,0.10,WeatherDisplay:10.37,2013-06-02 08:23:00,
2013-06-02 04:28:00,67.6,66.7,30.17,WNW,296,6.9,6.9,97,0.03,RA,,0.11,WeatherDisplay:10.37,2013-06-02 08:28:00,
2013-06-02 04:33:00,67.6,66.7,30.16,West,272,0.0,0.0,97,0.05,RA,,0.13,WeatherDisplay:10.37,2013-06-02 08:33:00,
2013-06-02 04:38:00,67.6,66.7,30.16,West,272,0.0,0.0,97,0.05,RA,,0.13,WeatherDisplay:10.37,2013-06-02 08:38:00,
2013-06-02 04:43:00,67.6,66.7,30.16,West,272,0.0,0.0,97,0.05,OVC,,0.13,WeatherDisplay:10.37,2013-06-02 08:43:00,
2013-06-02 04:48:00,67.5,66.6,30.16,NNW,335,1.2,1.2,97,0.09,RA,,0.19,WeatherDisplay:10.37,2013-06-02 08:48:00,
2013-06-02 04:53:00,67.5,66.6,30.16,NNW,336,0.0,0.0,97,0.14,RA,,0.22,WeatherDisplay:10.37,2013-06-02 08:53:00,
2013-06-02 04:58:00,67.5,66.6,30.16,NNW,336,0.0,0.0,97,0.14,RA,,0.22,WeatherDisplay:10.37,2013-06-02 08:58:00,
2013-06-02 05:03:00,67.4,66.5,30.15,NNW,336,0.0,0.0,97,0.14,OVC,,0.22,WeatherDisplay:10.37,2013-06-02 09:03:00,
2013-06-02 05:08:00,67.4,66.5,30.15,WNW,302,1.2,1.2,97,0.15,RA,,0.23,WeatherDisplay:10.37,2013-06-02 09:08:00,
2013-06-02 05:13:00,67.4,66.5,30.18,WNW,287,6.9,6.9,97,0.15,RA,,0.23,WeatherDisplay:10.37,2013-06-02 09:13:00,
2013-06-02 05:18:00,67.5,66.6,30.20,WNW,284,8.1,8.1,97,0.18,RA,,0.28,WeatherDisplay:10.37,2013-06-02 09:18:00,
2013-06-02 05:23:00,67.6,66.7,30.19,WNW,287,12.7,12.7,97,0.23,RA,,0.34,WeatherDisplay:10.37,2013-06-02 09:23:00,
2013-06-02 05:28:00,68.0,66.8,30.18,West,272,11.5,11.5,96,0.26,RA,,0.37,WeatherDisplay:10.37,2013-06-02 09:28:00,
2013-06-02 05:33:00,68.0,66.2,30.18,West,280,15.0,15.0,94,0.25,RA,,0.38,WeatherDisplay:10.37,2013-06-02 09:33:00,
2013-06-02 05:38:00,67.7,65.9,30.20,WNW,283,16.1,16.1,94,0.26,RA,,0.39,WeatherDisplay:10.37,2013-06-02 09:38:00,
2013-06-02 05:43:00,67.0,64.6,30.21,WSW,257,16.1,16.1,92,0.27,RA,,0.40,WeatherDisplay:10.37,2013-06-02 09:43:00,
2013-06-02 05:48:00,66.7,64.6,30.19,West,267,9.2,9.2,93,0.23,RA,,0.40,WeatherDisplay:10.37,2013-06-02 09:48:00,
2013-06-02 05:53:00,66.4,64.3,30.19,West,271,9.2,9.2,93,0.19,RA,,0.41,WeatherDisplay:10.37,2013-06-02 09:53:00,
2013-06-02 05:58:00,66.3,64.5,30.19,WSW,254,6.0,6.0,94,0.19,RA,,0.41,WeatherDisplay:10.37,2013-06-02 09:58:00,
2013-06-02 06:03:00,66.1,64.3,30.18,WSW,239,3.0,3.0,94,0.20,-RA,,0.42,WeatherDisplay:10.37,2013-06-02 10:03:00,
2013-06-02 06:08:00,66.0,64.5,30.19,WSW,242,6.0,6.0,95,0.19,-RA,,0.42,WeatherDisplay:10.37,2013-06-02 10:08:00,
2013-06-02 06:13:00,65.8,64.3,30.19,WNW,294,4.6,4.6,95,0.19,-RA,,0.42,WeatherDisplay:10.37,2013-06-02 10:13:00,
2013-06-02 06:18:00,65.8,64.3,30.19,WSW,242,4.0,4.0,95,0.15,-RA,,0.42,WeatherDisplay:10.37,2013-06-02 10:18:00,
2013-06-02 06:23:00,65.7,64.2,30.19,SW,235,4.6,4.6,95,0.09,-RA,,0.42,WeatherDisplay:10.37,2013-06-02 10:23:00,
2013-06-02 06:28:00,65.7,64.2,30.18,West,270,6.9,6.9,95,0.05,-RA,,0.42,WeatherDisplay:10.37,2013-06-02 10:28:00,
2013-06-02 06:33:00,65.7,64.2,30.18,WSW,237,5.8,5.8,95,0.04,-RA,,0.42,WeatherDisplay:10.37,2013-06-02 10:33:00,
2013-06-02 06:38:00,65.8,64.3,30.19,WSW,247,4.0,4.0,95,0.03,-RA,,0.42,WeatherDisplay:10.37,2013-06-02 10:38:00,
2013-06-02 06:44:00,65.9,64.4,30.19,West,265,4.6,4.6,95,0.02,-RA,,0.42,WeatherDisplay:10.37,2013-06-02 10:44:00,
2013-06-02 06:49:00,65.9,64.1,30.20,West,262,4.6,4.6,94,0.02,-RA,,0.42,WeatherDisplay:10.37,2013-06-02 10:49:00,
2013-06-02 06:54:00,66.0,64.2,30.19,WSW,248,8.0,8.0,94,0.01,-RA,,0.42,WeatherDisplay:10.37,2013-06-02 10:54:00,
2013-06-02 06:59:00,66.0,64.2,30.18,WSW,255,8.1,8.1,94,0.02,-RA,,0.43,WeatherDisplay:10.37,2013-06-02 10:59:00,
2013-06-02 07:04:00,66.0,64.2,30.18,SW,236,5.8,5.8,94,0.01,-RA,,0.43,WeatherDisplay:10.37,2013-06-02 11:04:00,
2013-06-02 07:09:00,66.0,64.2,30.19,WSW,245,6.9,6.9,94,0.01,-RA,,0.43,WeatherDisplay:10.37,2013-06-02 11:09:00,
2013-06-02 07:14:00,66.0,64.2,30.18,SW,229,4.0,4.0,94,0.02,-RA,,0.44,WeatherDisplay:10.37,2013-06-02 11:14:00,
2013-06-02 07:19:00,66.0,64.2,30.18,West,272,3.5,3.5,94,0.02,-RA,,0.44,WeatherDisplay:10.37,2013-06-02 11:19:00,
2013-06-02 07:24:00,66.1,64.3,30.19,WSW,250,6.9,6.9,94,0.02,-RA,,0.44,WeatherDisplay:10.37,2013-06-02 11:24:00,
2013-06-02 07:29:00,66.2,64.4,30.19,WSW,251,8.1,8.1,94,0.02,-RA,,0.44,WeatherDisplay:10.37,2013-06-02 11:29:00,
2013-06-02 07:34:00,66.3,64.5,30.18,West,274,3.5,3.5,94,0.02,-RA,,0.44,WeatherDisplay:10.37,2013-06-02 11:34:00,
2013-06-02 07:39:00,66.4,64.6,30.19,West,262,4.0,4.0,94,0.02,-RA,,0.44,WeatherDisplay:10.37,2013-06-02 11:39:00,
2013-06-02 07:44:00,66.5,64.7,30.18,WSW,249,3.5,3.5,94,0.02,-RA,,0.44,WeatherDisplay:10.37,2013-06-02 11:44:00,
2013-06-02 07:49:00,66.6,64.8,30.18,West,264,4.6,4.6,94,0.02,-RA,,0.44,WeatherDisplay:10.37,2013-06-02 11:49:00,
2013-06-02 07:54:00,66.7,64.9,30.18,WSW,253,4.6,4.6,94,0.02,-RA,,0.44,WeatherDisplay:10.37,2013-06-02 11:54:00,
2013-06-02 07:59:00,66.9,65.1,30.18,WSW,252,3.5,3.5,94,0.01,-RA,,0.44,WeatherDisplay:10.37,2013-06-02 11:59:00,
2013-06-02 08:04:00,67.0,65.2,30.18,WSW,253,3.5,3.5,94,0.01,-RA,,0.44,WeatherDisplay:10.37,2013-06-02 12:04:00,
2013-06-02 08:09:00,67.0,65.2,30.18,WSW,247,4.0,4.0,94,0.01,-RA,,0.44,WeatherDisplay:10.37,2013-06-02 12:09:00,
2013-06-02 08:14:00,67.1,65.3,30.18,West,267,3.5,3.5,94,0.00,-RA,,0.44,WeatherDisplay:10.37,2013-06-02 12:14:00,
2013-06-02 08:19:00,67.2,65.4,30.18,WSW,248,4.6,4.6,94,0.00,-RA,,0.44,WeatherDisplay:10.37,2013-06-02 12:19:00,
2013-06-02 08:24:00,67.2,65.1,30.18,SW,232,3.5,3.5,93,0.00,-RA,,0.44,WeatherDisplay:10.37,2013-06-02 12:24:00,
2013-06-02 08:29:00,67.3,65.5,30.19,West,260,2.3,2.3,94,0.00,-RA,,0.44,WeatherDisplay:10.37,2013-06-02 12:29:00,
2013-06-02 08:34:00,67.4,65.3,30.19,SSE,154,4.6,4.6,93,0.00,-RA,,0.44,WeatherDisplay:10.37,2013-06-02 12:34:00,
2013-06-02 08:39:00,67.5,65.4,30.19,SW,230,6.0,6.0,93,0.00,-RA,,0.44,WeatherDisplay:10.37,2013-06-02 12:39:00,
2013-06-02 08:44:00,67.6,65.5,30.18,WSW,248,3.5,3.5,93,0.00,-RA,,0.44,WeatherDisplay:10.37,2013-06-02 12:44:00,
2013-06-02 08:49:00,67.7,65.3,30.18,WSW,242,4.6,4.6,92,0.00,-RA,,0.44,WeatherDisplay:10.37,2013-06-02 12:49:00,
2013-06-02 08:54:00,67.8,65.1,30.18,SW,227,6.9,6.9,91,0.00,-RA,,0.44,WeatherDisplay:10.37,2013-06-02 12:54:00,
2013-06-02 08:59:00,67.8,65.1,30.17,SW,224,3.5,3.5,91,0.00,-RA,,0.44,WeatherDisplay:10.37,2013-06-02 12:59:00,
2013-06-02 09:04:00,67.9,65.2,30.17,WSW,241,5.8,5.8,91,0.00,BKN,,0.44,WeatherDisplay:10.37,2013-06-02 13:04:00,
2013-06-02 09:09:00,67.9,65.2,30.17,West,268,3.5,3.5,91,0.00,BKN,,0.44,WeatherDisplay:10.37,2013-06-02 13:09:00,
2013-06-02 09:14:00,68.0,65.0,30.17,West,259,3.5,3.5,90,0.00,BKN,,0.44,WeatherDisplay:10.37,2013-06-02 13:14:00,
2013-06-02 09:19:00,68.0,65.3,30.18,WSW,257,3.5,3.5,91,0.00,BKN,,0.44,WeatherDisplay:10.37,2013-06-02 13:19:00,
2013-06-02 09:24:00,68.0,65.3,30.17,West,269,2.3,2.3,91,0.00,BKN,,0.44,WeatherDisplay:10.37,2013-06-02 13:24:00,
2013-06-02 09:29:00,68.1,65.1,30.18,West,279,2.3,2.3,90,0.00,BKN,,0.44,WeatherDisplay:10.37,2013-06-02 13:29:00,
2013-06-02 09:34:00,68.2,64.8,30.18,WSW,244,3.5,3.5,89,0.00,BKN,,0.44,WeatherDisplay:10.37,2013-06-02 13:34:00,
2013-06-02 09:39:00,68.3,64.9,30.18,WSW,242,3.5,3.5,89,0.00,BKN,,0.44,WeatherDisplay:10.37,2013-06-02 13:39:00,
2013-06-02 09:44:00,68.4,65.4,30.18,WSW,255,2.3,2.3,90,0.00,BKN,,0.44,WeatherDisplay:10.37,2013-06-02 13:44:00,
2013-06-02 09:50:00,68.4,65.4,30.18,West,260,3.5,3.5,90,0.00,BKN,,0.44,WeatherDisplay:10.37,2013-06-02 13:50:00,
2013-06-02 09:55:00,68.6,65.5,30.18,WSW,254,3.5,3.5,90,0.00,BKN,,0.44,WeatherDisplay:10.37,2013-06-02 13:55:00,
2013-06-02 10:00:00,68.8,66.1,30.18,WSW,252,2.3,0.0,91,0.00,BKN,,0.44,WeatherDisplay:10.37,2013-06-02 14:00:00,
2013-06-02 10:05:00,69.0,65.6,30.19,WSW,254,3.5,3.5,89,0.00,BKN,,0.44,WeatherDisplay:10.37,2013-06-02 14:05:00,
2013-06-02 10:10:00,69.2,65.8,30.19,WSW,257,4.0,4.0,89,0.00,BKN,,0.44,WeatherDisplay:10.37,2013-06-02 14:10:00,
2013-06-02 10:15:00,69.4,65.7,30.19,SSW,203,3.5,3.5,88,0.00,BKN,,0.44,WeatherDisplay:10.37,2013-06-02 14:15:00,
2013-06-02 10:20:00,69.6,66.2,30.19,WSW,253,1.2,1.2,89,0.00,BKN,,0.44,WeatherDisplay:10.37,2013-06-02 14:20:00,
2013-06-02 10:25:00,69.9,65.9,30.18,WSW,238,4.6,4.6,87,0.00,BKN,,0.44,WeatherDisplay:10.37,2013-06-02 14:25:00,
2013-06-02 10:30:00,70.1,65.7,30.19,WSW,255,4.6,4.6,86,0.00,BKN,,0.44,WeatherDisplay:10.37,2013-06-02 14:30:00,
2013-06-02 10:35:00,70.4,66.0,30.18,West,268,3.5,3.5,86,0.00,BKN,,0.44,WeatherDisplay:10.37,2013-06-02 14:35:00,
2013-06-02 10:40:00,70.7,66.3,30.18,West,260,1.2,1.2,86,0.00,BKN,,0.44,WeatherDisplay:10.37,2013-06-02 14:40:00,
2013-06-02 10:45:00,71.1,67.0,30.18,WSW,245,5.0,5.0,87,0.00,BKN,,0.44,WeatherDisplay:10.37,2013-06-02 14:45:00,
2013-06-02 10:50:00,71.2,66.1,30.18,West,267,4.6,4.6,84,0.00,BKN,,0.44,WeatherDisplay:10.37,2013-06-02 14:50:00,
2013-06-02 10:55:00,71.6,66.2,30.18,WSW,243,3.5,3.5,83,0.00,BKN,,0.44,WeatherDisplay:10.37,2013-06-02 14:55:00,
2013-06-02 11:00:00,72.0,66.9,30.18,WSW,253,5.8,5.8,84,0.00,BKN,,0.44,WeatherDisplay:10.37,2013-06-02 15:00:00,
2013-06-02 11:05:00,72.5,66.7,30.18,South,187,3.5,3.5,82,0.00,BKN,,0.44,WeatherDisplay:10.37,2013-06-02 15:05:00,
2013-06-02 11:10:00,72.9,67.1,30.19,WSW,238,9.0,9.0,82,0.00,BKN,,0.44,WeatherDisplay:10.37,2013-06-02 15:10:00,
2013-06-02 11:15:00,73.1,66.6,30.18,WSW,241,8.1,8.1,80,0.00,BKN,,0.44,WeatherDisplay:10.37,2013-06-02 15:15:00,
2013-06-02 11:20:00,73.3,66.8,30.18,West,270,6.9,6.9,80,0.00,BKN,,0.44,WeatherDisplay:10.37,2013-06-02 15:20:00,
2013-06-02 11:25:00,73.4,66.5,30.18,South,179,9.2,9.2,79,0.00,BKN,,0.44,WeatherDisplay:10.37,2013-06-02 15:25:00,
2013-06-02 11:30:00,73.8,66.9,30.18,WNW,303,12.0,12.0,79,0.00,BKN,,0.44,WeatherDisplay:10.37,2013-06-02 15:30:00,
2013-06-02 11:35:00,74.0,66.7,30.18,SW,225,8.1,8.1,78,0.00,BKN,,0.44,WeatherDisplay:10.37,2013-06-02 15:35:00,
2013-06-02 11:40:00,74.2,66.9,30.18,SW,227,11.5,11.5,78,0.00,BKN,,0.44,WeatherDisplay:10.37,2013-06-02 15:40:00,
2013-06-02 11:45:00,74.2,66.5,30.18,West,277,14.0,14.0,77,0.00,BKN,,0.44,WeatherDisplay:10.37,2013-06-02 15:45:00,
2013-06-02 11:50:00,74.4,66.7,30.18,West,260,11.5,11.5,77,0.00,BKN,,0.44,WeatherDisplay:10.37,2013-06-02 15:50:00,
2013-06-02 11:55:00,74.6,66.9,30.18,West,276,10.4,10.4,77,0.00,BKN,,0.44,WeatherDisplay:10.37,2013-06-02 15:55:00,
2013-06-02 12:00:00,74.6,66.9,30.18,WSW,256,8.1,8.1,77,0.00,BKN,,0.44,WeatherDisplay:10.37,2013-06-02 16:00:00,
2013-06-02 12:05:00,74.6,66.9,30.18,West,276,8.1,8.1,77,0.00,BKN,,0.44,WeatherDisplay:10.37,2013-06-02 16:05:00,
2013-06-02 12:10:00,74.6,66.9,30.18,West,270,8.1,8.1,77,0.00,BKN,,0.44,WeatherDisplay:10.37,2013-06-02 16:10:00,
2013-06-02 12:15:00,74.6,66.9,30.18,West,276,6.9,6.9,77,0.00,BKN,,0.44,WeatherDisplay:10.37,2013-06-02 16:15:00,
2013-06-02 12:20:00,74.6,66.1,30.18,WSW,245,10.0,10.0,75,0.00,BKN,,0.44,WeatherDisplay:10.37,2013-06-02 16:20:00,
2013-06-02 12:25:00,74.6,66.5,30.18,SW,236,11.5,11.5,76,0.00,BKN,,0.44,WeatherDisplay:10.37,2013-06-02 16:25:00,
2013-06-02 12:30:00,74.5,66.1,30.18,WSW,255,8.1,8.1,75,0.00,BKN,,0.44,WeatherDisplay:10.37,2013-06-02 16:30:00,
2013-06-02 12:35:00,74.7,66.2,30.18,South,174,11.5,11.5,75,0.00,BKN,,0.44,WeatherDisplay:10.37,2013-06-02 16:35:00,
2013-06-02 12:40:00,75.0,66.5,30.18,WSW,253,10.4,10.4,75,0.00,BKN,,0.44,WeatherDisplay:10.37,2013-06-02 16:40:00,
2013-06-02 12:45:00,75.2,65.1,30.18,West,265,11.5,11.5,71,0.00,BKN,,0.44,WeatherDisplay:10.37,2013-06-02 16:45:00,
2013-06-02 12:50:00,75.6,65.9,30.18,West,276,6.9,6.9,72,0.00,BKN,,0.44,WeatherDisplay:10.37,2013-06-02 16:50:00,
2013-06-02 12:55:00,75.5,65.8,30.18,WNW,292,12.0,12.0,72,0.00,BKN,,0.44,WeatherDisplay:10.37,2013-06-02 16:55:00,
2013-06-02 13:00:00,74.1,65.7,30.18,WNW,282,10.4,10.4,75,0.00,BKN,,0.44,WeatherDisplay:10.37,2013-06-02 17:00:00,
2013-06-02 13:05:00,74.1,66.0,30.18,WNW,295,10.4,10.4,76,0.00,BKN,,0.44,WeatherDisplay:10.37,2013-06-02 17:05:00,
2013-06-02 13:10:00,73.4,65.0,30.17,WNW,295,9.2,9.2,75,0.00,BKN,,0.44,WeatherDisplay:10.37,2013-06-02 17:10:00,
2013-06-02 13:15:00,72.7,65.1,30.18,WNW,286,8.1,8.1,77,0.00,BKN,,0.44,WeatherDisplay:10.37,2013-06-02 17:15:00,
2013-06-02 13:21:00,71.6,65.8,30.19,WNW,286,16.0,16.0,82,0.09,RA,,0.54,WeatherDisplay:10.37,2013-06-02 17:21:00,
2013-06-02 13:26:00,69.7,65.0,30.19,WNW,302,15.0,15.0,85,0.13,RA,,0.57,WeatherDisplay:10.37,2013-06-02 17:26:00,
2013-06-02 13:31:00,69.6,65.9,30.19,West,260,8.0,8.0,88,0.13,RA,,0.57,WeatherDisplay:10.37,2013-06-02 17:31:00,
2013-06-02 13:36:00,70.2,66.5,30.19,West,271,8.0,8.0,88,0.13,BKN,,0.57,WeatherDisplay:10.37,2013-06-02 17:36:00,
2013-06-02 13:41:00,70.8,66.7,30.18,West,270,12.7,12.7,87,0.13,BKN,,0.57,WeatherDisplay:10.37,2013-06-02 17:41:00,
2013-06-02 13:46:00,71.4,64.9,30.18,NW,305,16.0,16.0,80,0.13,BKN,,0.57,WeatherDisplay:10.37,2013-06-02 17:46:00,
2013-06-02 13:51:00,71.9,66.5,30.18,WNW,288,13.8,13.8,83,0.13,BKN,,0.57,WeatherDisplay:10.37,2013-06-02 17:51:00,
2013-06-02 13:56:00,72.4,65.5,30.19,WNW,290,10.4,10.4,79,0.13,BKN,,0.57,WeatherDisplay:10.37,2013-06-02 17:56:00,
2013-06-02 14:01:00,73.0,66.8,30.18,West,278,14.0,14.0,81,0.13,BKN,,0.57,WeatherDisplay:10.37,2013-06-02 18:01:00,
2013-06-02 14:06:00,73.3,66.8,30.18,West,275,15.0,15.0,80,0.13,SCT,,0.57,WeatherDisplay:10.37,2013-06-02 18:06:00,
2013-06-02 14:11:00,73.6,65.6,30.18,NW,318,19.6,19.6,76,0.13,SCT,,0.57,WeatherDisplay:10.37,2013-06-02 18:11:00,
2013-06-02 14:16:00,73.8,65.4,30.18,WNW,297,13.8,13.8,75,0.13,SCT,,0.57,WeatherDisplay:10.37,2013-06-02 18:16:00,
2013-06-02 14:21:00,74.5,66.8,30.19,West,278,11.5,11.5,77,0.04,SCT,,0.57,WeatherDisplay:10.37,2013-06-02 18:21:00,
2013-06-02 14:26:00,74.7,67.0,30.19,West,269,20.7,20.7,77,0.00,SCT,,0.57,WeatherDisplay:10.37,2013-06-02 18:26:00,
2013-06-02 14:31:00,74.9,64.9,30.19,WNW,290,12.7,12.7,71,0.00,SCT,,0.57,WeatherDisplay:10.37,2013-06-02 18:31:00,
2013-06-02 14:36:00,75.2,66.3,30.19,West,269,10.4,10.4,74,0.00,SCT,,0.57,WeatherDisplay:10.37,2013-06-02 18:36:00,
2013-06-02 14:41:00,75.7,64.8,30.19,WNW,301,15.0,15.0,69,0.00,SCT,,0.57,WeatherDisplay:10.37,2013-06-02 18:41:00,
2013-06-02 14:46:00,75.9,65.0,30.19,WNW,283,19.6,19.6,69,0.00,SCT,,0.57,WeatherDisplay:10.37,2013-06-02 18:46:00,
2013-06-02 14:51:00,75.9,63.7,30.19,WNW,286,21.9,21.9,66,0.00,SCT,,0.57,WeatherDisplay:10.37,2013-06-02 18:51:00,
2013-06-02 14:56:00,75.8,62.8,30.20,NW,306,27.6,27.6,64,0.00,SCT,,0.57,WeatherDisplay:10.37,2013-06-02 18:56:00,
2013-06-02 15:01:00,75.9,61.9,30.19,WNW,285,19.6,19.6,62,0.00,SCT,,0.57,WeatherDisplay:10.37,2013-06-02 19:01:00,
2013-06-02 15:06:00,76.2,62.2,30.19,WNW,287,17.3,17.3,62,0.00,SCT,,0.57,WeatherDisplay:10.37,2013-06-02 19:06:00,
2013-06-02 15:11:00,76.2,62.2,30.19,WNW,300,18.4,18.4,62,0.00,SCT,,0.57,WeatherDisplay:10.37,2013-06-02 19:11:00,
2013-06-02 15:16:00,76.6,63.5,30.19,WNW,303,12.7,12.7,64,0.00,SCT,,0.57,WeatherDisplay:10.37,2013-06-02 19:16:00,
2013-06-02 15:21:00,76.6,62.1,30.20,WNW,283,27.6,27.6,61,0.00,SCT,,0.57,WeatherDisplay:10.37,2013-06-02 19:21:00,
2013-06-02 15:26:00,76.0,60.2,30.20,WNW,283,21.9,21.9,58,0.00,SCT,,0.57,WeatherDisplay:10.37,2013-06-02 19:26:00,
2013-06-02 15:31:00,76.1,61.7,30.19,NW,312,11.5,11.5,61,0.00,SCT,,0.57,WeatherDisplay:10.37,2013-06-02 19:31:00,
2013-06-02 15:36:00,76.2,60.8,30.19,West,276,16.1,16.1,59,0.00,SCT,,0.57,WeatherDisplay:10.37,2013-06-02 19:36:00,
2013-06-02 15:41:00,76.4,60.5,30.19,WNW,283,17.3,17.3,58,0.00,SCT,,0.57,WeatherDisplay:10.37,2013-06-02 19:41:00,
2013-06-02 15:46:00,76.5,61.1,30.20,West,275,17.3,17.3,59,0.00,SCT,,0.57,WeatherDisplay:10.37,2013-06-02 19:46:00,
2013-06-02 15:51:00,76.2,59.9,30.20,West,270,31.0,31.0,57,0.00,SCT,,0.57,WeatherDisplay:10.37,2013-06-02 19:51:00,
2013-06-02 15:56:00,75.4,59.1,30.20,WNW,283,19.6,19.6,57,0.00,SCT,,0.57,WeatherDisplay:10.37,2013-06-02 19:56:00,
2013-06-02 16:01:00,75.5,59.7,30.19,WNW,288,17.3,17.3,58,0.00,FEW,,0.57,WeatherDisplay:10.37,2013-06-02 20:01:00,
2013-06-02 16:06:00,75.7,58.9,30.19,SSW,207,19.6,19.6,56,0.00,FEW,,0.57,WeatherDisplay:10.37,2013-06-02 20:06:00,
2013-06-02 16:11:00,75.6,57.3,30.20,West,260,21.9,21.9,53,0.00,FEW,,0.57,WeatherDisplay:10.37,2013-06-02 20:11:00,
2013-06-02 16:17:00,75.4,58.1,30.19,NW,319,25.3,25.3,55,0.00,FEW,,0.57,WeatherDisplay:10.37,2013-06-02 20:17:00,
2013-06-02 16:22:00,75.3,57.0,30.20,West,261,20.7,20.7,53,0.00,FEW,,0.57,WeatherDisplay:10.37,2013-06-02 20:22:00,
2013-06-02 16:27:00,75.2,57.9,30.19,West,279,20.7,20.7,55,0.00,FEW,,0.57,WeatherDisplay:10.37,2013-06-02 20:27:00,
2013-06-02 16:32:00,74.9,57.6,30.19,West,273,26.5,26.5,55,0.00,FEW,,0.57,WeatherDisplay:10.37,2013-06-02 20:32:00,
2013-06-02 16:37:00,75.0,59.2,30.19,NW,305,19.0,19.0,58,0.00,FEW,,0.57,WeatherDisplay:10.37,2013-06-02 20:37:00,
2013-06-02 16:42:00,75.0,58.7,30.19,WNW,288,20.7,20.7,57,0.00,FEW,,0.57,WeatherDisplay:10.37,2013-06-02 20:42:00,
2013-06-02 16:47:00,75.1,58.8,30.19,WNW,286,24.2,24.2,57,0.00,FEW,,0.57,WeatherDisplay:10.37,2013-06-02 20:47:00,
2013-06-02 16:52:00,75.1,57.8,30.19,WNW,283,25.3,25.3,55,0.00,FEW,,0.57,WeatherDisplay:10.37,2013-06-02 20:52:00,
2013-06-02 16:57:00,75.1,58.3,30.19,SW,228,19.6,19.6,56,0.00,FEW,,0.57,WeatherDisplay:10.37,2013-06-02 20:57:00,
2013-06-02 17:02:00,75.2,58.4,30.19,NW,315,20.7,20.7,56,0.00,FEW,,0.57,WeatherDisplay:10.37,2013-06-02 21:02:00,
2013-06-02 17:07:00,75.3,58.5,30.19,NW,312,23.0,23.0,56,0.00,FEW,,0.57,WeatherDisplay:10.37,2013-06-02 21:07:00,
2013-06-02 17:12:00,75.2,58.4,30.19,NW,304,21.9,21.9,56,0.00,FEW,,0.57,WeatherDisplay:10.37,2013-06-02 21:12:00,
2013-06-02 17:17:00,75.2,56.9,30.19,NW,304,21.0,21.0,53,0.00,FEW,,0.57,WeatherDisplay:10.37,2013-06-02 21:17:00,
2013-06-02 17:22:00,75.1,58.3,30.20,West,271,14.0,14.0,56,0.00,FEW,,0.57,WeatherDisplay:10.37,2013-06-02 21:22:00,
2013-06-02 17:27:00,74.8,58.5,30.20,West,269,19.6,19.6,57,0.00,FEW,,0.57,WeatherDisplay:10.37,2013-06-02 21:27:00,
2013-06-02 17:32:00,74.5,59.2,30.20,NW,309,18.4,18.4,59,0.00,FEW,,0.57,WeatherDisplay:10.37,2013-06-02 21:32:00,
2013-06-02 17:37:00,74.3,59.0,30.20,West,279,19.6,19.6,59,0.00,FEW,,0.57,WeatherDisplay:10.37,2013-06-02 21:37:00,
2013-06-02 17:42:00,74.3,60.0,30.19,NW,305,18.4,18.4,61,0.00,FEW,,0.57,WeatherDisplay:10.37,2013-06-02 21:42:00,
2013-06-02 17:47:00,74.2,58.5,30.19,West,275,19.6,19.6,58,0.00,FEW,,0.57,WeatherDisplay:10.37,2013-06-02 21:47:00,
2013-06-02 17:52:00,74.2,58.9,30.20,WNW,300,18.4,18.4,59,0.00,FEW,,0.57,WeatherDisplay:10.37,2013-06-02 21:52:00,
2013-06-02 17:57:00,74.0,59.2,30.20,WNW,302,18.0,18.0,60,0.00,FEW,,0.57,WeatherDisplay:10.37,2013-06-02 21:57:00,
2013-06-02 18:02:00,73.8,58.6,30.20,NW,310,18.4,18.4,59,0.00,FEW,,0.57,WeatherDisplay:10.37,2013-06-02 22:02:00,
2013-06-02 18:07:00,73.7,58.0,30.20,West,281,20.7,20.7,58,0.00,FEW,,0.57,WeatherDisplay:10.37,2013-06-02 22:07:00,
2013-06-02 18:12:00,73.5,57.8,30.20,WNW,298,16.1,16.1,58,0.00,FEW,,0.57,WeatherDisplay:10.37,2013-06-02 22:12:00,
2013-06-02 18:17:00,73.2,57.1,30.20,NW,312,20.0,20.0,57,0.00,FEW,,0.57,WeatherDisplay:10.37,2013-06-02 22:17:00,
2013-06-02 18:22:00,72.9,57.3,30.21,NW,311,26.5,26.5,58,0.00,FEW,,0.57,WeatherDisplay:10.37,2013-06-02 22:22:00,
2013-06-02 18:27:00,72.6,57.9,30.21,WNW,287,26.5,26.5,60,0.00,FEW,,0.57,WeatherDisplay:10.37,2013-06-02 22:27:00,
2013-06-02 18:32:00,72.4,57.7,30.21,West,270,19.6,19.6,60,0.00,FEW,,0.57,WeatherDisplay:10.37,2013-06-02 22:32:00,
2013-06-02 18:37:00,72.2,57.5,30.21,WNW,287,19.6,19.6,60,0.00,FEW,,0.57,WeatherDisplay:10.37,2013-06-02 22:37:00,
2013-06-02 18:42:00,72.2,57.5,30.21,West,279,19.6,19.6,60,0.00,FEW,,0.57,WeatherDisplay:10.37,2013-06-02 22:42:00,
2013-06-02 18:47:00,72.2,57.5,30.22,West,271,16.1,16.1,60,0.00,FEW,,0.57,WeatherDisplay:10.37,2013-06-02 22:47:00,
2013-06-02 18:52:00,72.2,58.0,30.22,West,278,19.6,19.6,61,0.00,FEW,,0.57,WeatherDisplay:10.37,2013-06-02 22:52:00,
2013-06-02 18:57:00,72.1,57.9,30.23,West,280,13.8,13.8,61,0.00,FEW,,0.57,WeatherDisplay:10.37,2013-06-02 22:57:00,
2013-06-02 19:02:00,72.0,57.8,30.23,WSW,250,19.6,19.6,61,0.00,SCT,,0.57,WeatherDisplay:10.37,2013-06-02 23:02:00,
2013-06-02 19:08:00,72.0,57.8,30.23,West,264,20.7,20.7,61,0.00,SCT,,0.57,WeatherDisplay:10.37,2013-06-02 23:08:00,
2013-06-02 19:13:00,72.0,57.8,30.23,West,262,13.0,13.0,61,0.00,SCT,,0.57,WeatherDisplay:10.37,2013-06-02 23:13:00,
2013-06-02 19:18:00,71.9,57.7,30.24,NW,318,12.7,12.7,61,0.00,SCT,,0.57,WeatherDisplay:10.37,2013-06-02 23:18:00,
2013-06-02 19:23:00,71.8,58.5,30.23,West,266,14.0,14.0,63,0.00,SCT,,0.57,WeatherDisplay:10.37,2013-06-02 23:23:00,
2013-06-02 19:28:00,71.5,57.3,30.23,WNW,292,18.4,18.4,61,0.00,SCT,,0.57,WeatherDisplay:10.37,2013-06-02 23:28:00,
2013-06-02 19:33:00,71.3,57.2,30.23,West,276,20.7,20.7,61,0.00,SCT,,0.57,WeatherDisplay:10.37,2013-06-02 23:33:00,
2013-06-02 19:38:00,71.1,57.9,30.24,West,281,11.5,11.5,63,0.00,SCT,,0.57,WeatherDisplay:10.37,2013-06-02 23:38:00,
2013-06-02 19:43:00,70.8,57.1,30.24,WNW,298,14.0,14.0,62,0.00,SCT,,0.57,WeatherDisplay:10.37,2013-06-02 23:43:00,
2013-06-02 19:48:00,70.7,57.9,30.24,NW,309,11.5,11.5,64,0.00,SCT,,0.57,WeatherDisplay:10.37,2013-06-02 23:48:00,
2013-06-02 19:53:00,70.5,58.2,30.24,NW,311,11.5,11.5,65,0.00,SCT,,0.57,WeatherDisplay:10.37,2013-06-02 23:53:00,
2013-06-02 19:58:00,70.3,57.5,30.24,WNW,293,11.5,11.5,64,0.00,SCT,,0.57,WeatherDisplay:10.37,2013-06-02 23:58:00,
2013-06-02 20:03:00,70.1,57.8,30.25,WSW,248,10.0,10.0,65,0.00,SCT,,0.57,WeatherDisplay:10.37,2013-06-03 00:03:00,
2013-06-02 20:08:00,69.9,57.6,30.24,WNW,300,17.3,17.3,65,0.00,SCT,,0.57,WeatherDisplay:10.37,2013-06-03 00:08:00,
2013-06-02 20:13:00,69.7,57.4,30.24,WSW,250,11.5,11.5,65,0.00,SCT,,0.57,WeatherDisplay:10.37,2013-06-03 00:13:00,
2013-06-02 20:18:00,69.4,57.5,30.24,WNW,299,11.5,11.5,66,0.00,SCT,,0.57,WeatherDisplay:10.37,2013-06-03 00:18:00,
2013-06-02 20:23:00,69.0,57.6,30.24,WNW,295,12.7,12.7,67,0.00,SCT,,0.57,WeatherDisplay:10.37,2013-06-03 00:23:00,
2013-06-02 20:28:00,68.9,57.5,30.25,NW,309,16.1,16.1,67,0.00,SCT,,0.57,WeatherDisplay:10.37,2013-06-03 00:28:00,
2013-06-02 20:33:00,68.8,57.4,30.25,WNW,288,11.5,11.5,67,0.00,SCT,,0.57,WeatherDisplay:10.37,2013-06-03 00:33:00,
2013-06-02 20:38:00,68.7,57.3,30.25,West,279,13.0,13.0,67,0.00,SCT,,0.57,WeatherDisplay:10.37,2013-06-03 00:38:00,
2013-06-02 20:43:00,68.5,57.5,30.25,West,279,6.0,6.0,68,0.00,SCT,,0.57,WeatherDisplay:10.37,2013-06-03 00:43:00,
2013-06-02 20:48:00,68.3,57.7,30.26,WNW,300,9.2,9.2,69,0.00,SCT,,0.57,WeatherDisplay:10.37,2013-06-03 00:48:00,
2013-06-02 20:53:00,68.2,57.6,30.26,WNW,302,8.1,8.1,69,0.00,SCT,,0.57,WeatherDisplay:10.37,2013-06-03 00:53:00,
2013-06-02 20:58:00,68.1,57.5,30.26,WNW,283,8.1,8.1,69,0.00,SCT,,0.57,WeatherDisplay:10.37,2013-06-03 00:58:00,
2013-06-02 21:03:00,67.9,57.8,30.27,West,276,6.9,6.9,70,0.00,BKN,,0.57,WeatherDisplay:10.37,2013-06-03 01:03:00,
2013-06-02 21:08:00,67.6,57.9,30.26,WNW,283,5.0,5.0,71,0.00,BKN,,0.57,WeatherDisplay:10.37,2013-06-03 01:08:00,
2013-06-02 21:13:00,67.5,57.4,30.26,West,281,11.5,11.5,70,0.00,BKN,,0.57,WeatherDisplay:10.37,2013-06-03 01:13:00,
2013-06-02 21:18:00,67.4,57.7,30.26,West,281,10.4,10.4,71,0.00,BKN,,0.57,WeatherDisplay:10.37,2013-06-03 01:18:00,
2013-06-02 21:23:00,67.2,57.5,30.27,West,279,8.1,8.1,71,0.00,BKN,,0.57,WeatherDisplay:10.37,2013-06-03 01:23:00,
2013-06-02 21:28:00,67.1,57.8,30.27,West,278,11.5,11.5,72,0.00,BKN,,0.57,WeatherDisplay:10.37,2013-06-03 01:28:00,
2013-06-02 21:33:00,66.9,57.6,30.27,West,279,10.0,10.0,72,0.00,BKN,,0.57,WeatherDisplay:10.37,2013-06-03 01:33:00,
2013-06-02 21:38:00,66.8,57.5,30.28,WNW,292,8.1,8.1,72,0.00,BKN,,0.57,WeatherDisplay:10.37,2013-06-03 01:38:00,
2013-06-02 21:43:00,66.8,57.5,30.27,NW,305,10.4,10.4,72,0.00,BKN,,0.57,WeatherDisplay:10.37,2013-06-03 01:43:00,
2013-06-02 21:48:00,66.7,57.8,30.28,NW,305,8.1,8.1,73,0.00,BKN,,0.57,WeatherDisplay:10.37,2013-06-03 01:48:00,
2013-06-02 21:53:00,66.5,57.6,30.28,WNW,298,11.5,11.5,73,0.00,BKN,,0.57,WeatherDisplay:10.37,2013-06-03 01:53:00,
2013-06-02 21:58:00,66.5,58.0,30.28,WNW,302,9.2,9.2,74,0.00,BKN,,0.57,WeatherDisplay:10.37,2013-06-03 01:58:00,
2013-06-02 22:03:00,66.5,58.3,30.29,NNW,336,6.9,6.9,75,0.00,OVC,,0.57,WeatherDisplay:10.37,2013-06-03 02:03:00,
2013-06-02 22:08:00,65.6,57.1,30.29,NNW,327,15.0,15.0,74,0.00,OVC,,0.57,WeatherDisplay:10.37,2013-06-03 02:08:00,
2013-06-02 22:13:00,64.4,56.3,30.29,NNW,331,5.0,5.0,75,0.00,OVC,,0.57,WeatherDisplay:10.37,2013-06-03 02:13:00,
2013-06-02 22:18:00,63.6,56.3,30.29,NW,321,4.6,4.6,77,0.00,OVC,,0.57,WeatherDisplay:10.37,2013-06-03 02:18:00,
2013-06-02 22:23:00,62.8,55.5,30.30,NW,312,12.7,12.7,77,0.00,OVC,,0.57,WeatherDisplay:10.37,2013-06-03 02:23:00,
2013-06-02 22:29:00,61.9,55.3,30.30,NW,321,10.4,10.4,79,0.00,OVC,,0.57,WeatherDisplay:10.37,2013-06-03 02:29:00,
2013-06-02 22:34:00,61.2,55.3,30.30,NW,318,3.5,3.5,81,0.00,OVC,,0.57,WeatherDisplay:10.37,2013-06-03 02:34:00,
2013-06-02 22:39:00,60.5,54.6,30.31,NNE,16,5.8,5.8,81,0.00,OVC,,0.57,WeatherDisplay:10.37,2013-06-03 02:39:00,
2013-06-02 22:44:00,59.9,54.4,30.31,West,276,2.3,2.3,82,0.00,OVC,,0.57,WeatherDisplay:10.37,2013-06-03 02:44:00,
2013-06-02 22:49:00,59.5,54.3,30.31,NW,324,3.5,3.5,83,0.00,OVC,,0.57,WeatherDisplay:10.37,2013-06-03 02:49:00,
2013-06-02 22:54:00,59.1,53.9,30.31,North,356,3.5,3.5,83,0.00,OVC,,0.57,WeatherDisplay:10.37,2013-06-03 02:54:00,
2013-06-02 22:59:00,58.8,53.3,30.32,NW,305,3.5,3.5,82,0.00,OVC,,0.57,WeatherDisplay:10.37,2013-06-03 02:59:00,
2013-06-02 23:04:00,58.4,53.6,30.32,NW,320,2.3,2.3,84,0.00,OVC,,0.57,WeatherDisplay:10.37,2013-06-03 03:04:00,
2013-06-02 23:09:00,58.2,53.4,30.33,North,353,6.9,6.9,84,0.00,OVC,,0.57,WeatherDisplay:10.37,2013-06-03 03:09:00,
2013-06-02 23:14:00,58.1,53.6,30.33,NW,319,2.0,2.0,85,0.00,OVC,,0.57,WeatherDisplay:10.37,2013-06-03 03:14:00,
2013-06-02 23:19:00,58.0,53.5,30.33,NW,314,3.5,3.5,85,0.00,OVC,,0.57,WeatherDisplay:10.37,2013-06-03 03:19:00,
2013-06-02 23:24:00,57.8,53.3,30.33,NW,305,4.6,4.6,85,0.00,OVC,,0.57,WeatherDisplay:10.37,2013-06-03 03:24:00,
2013-06-02 23:29:00,57.6,52.8,30.33,NW,319,3.5,3.5,84,0.00,OVC,,0.57,WeatherDisplay:10.37,2013-06-03 03:29:00,
2013-06-02 23:34:00,57.4,52.6,30.33,NW,321,2.3,2.3,84,0.00,OVC,,0.57,WeatherDisplay:10.37,2013-06-03 03:34:00,
2013-06-02 23:39:00,57.2,52.4,30.33,NW,326,2.3,2.3,84,0.00,OVC,,0.57,WeatherDisplay:10.37,2013-06-03 03:39:00,
2013-06-02 23:44:00,56.8,52.0,30.33,West,276,1.2,1.2,84,0.00,OVC,,0.57,WeatherDisplay:10.37,2013-06-03 03:44:00,
2013-06-02 23:49:00,56.4,51.9,30.34,NW,306,9.2,9.2,85,0.00,OVC,,0.57,WeatherDisplay:10.37,2013-06-03 03:49:00,
2013-06-02 23:54:00,56.0,51.6,30.34,NW,305,8.1,8.1,85,0.00,OVC,,0.57,WeatherDisplay:10.37,2013-06-03 03:54:00,
2013-06-02 23:59:00,55.8,51.7,30.34,NW,312,4.6,4.6,86,0.00,OVC,,0.57,WeatherDisplay:10.37,2013-06-03 03:59:00,